NOAA 16 DEB, 41290

Orbit data source: Space-Track

NOAA 16 DEB, 41290 is space debris in SSO originally from a launch on Thu, 21 Sep 2000 UTC launched from the Air Force Western Test Range (AFWTR). Debris objects in space refer to the collection of defunct objects orbiting the Earth. Examples of debris include non-operational satellites, rocket bodies, and fragments generated from explosions, collisions, or faulty payload assembly.

Loading next visibility...
Identifier
41290, 2000-055GS
Orbit
SSO
Country
Flag of USUS
Related business
Manufacturer
Unknown
Mission
Spacecraft
Bus & Motor
Unknown
Mass
Unknown
Launch date (UTC)
2000-09-21 (26 years ago)
Launch vehicle
Unknown
Launch site
Air Force Western Test Range (AFWTR)
Object type
Payload
Rocket body
Debris
Shape & HBR
Unknown shape, 0.1 m
Radar Cross Section
Small (<0.1 m²)

Expand to show TLE details & history
Last TLE update: 1 day ago

TLE from 1 day ago
0 NOAA 16 DEB
1 41290U 00055GS  26126.63095726  .00014374  00000-0  22973-2 0  9995
2 41290  99.0022  10.3998 0010243 223.0839 136.9564 14.71920319540636
Epoch: 2026-05-06T15:08Z
TLE epoch observation values (Epoch: 2026-05-06T15:08:34.707Z)
Latitude
-0.00002°
Longitude
-81.23349°
Altitude
663.189 km
Speed
7.523 km/s
True Right ascension
00h 41m 35s
True Declination
0° 00' 00"
Sunlit
Object was in daylight at epoch
Visualization orbit readout
Latitude
Unknown
Longitude
Unknown
Altitude
Unknown
Speed
Unknown
Apparent Right ascension
Unknown
Apparent Declination
Unknown
Sunlit
N/A
Visualization observer readout
Local Sidereal Time
10:39:15
Azimuth
Unknown
Elevation
Unknown
Doppler factor
Unknown
Orbital elements
Apogee altitude
659.25 km
Perigee altitude
644.847 km
Semi-major axis
7,030.186 km
Eccentricity
0.00102
Inclination
99.0022°
RAAN
10.3998°
Arg. of periapsis
223.0839°
True anomaly
137.03644°
Mean anomaly
136.9564°
Eccentric anomaly
136.99643°
Mean motion
3.68208 °/min
Orbital period
97.77 mins
BSTAR
0.0022973
Loading maneuver chart data...
Computing Atmospheric mass density...

Documentation

Showing up to 5 results
|